📊 Raw Sensor Data
Showing records 39026 to 39050 of 84,939 total
| ID | Distance (ft) | Battery V | Battery A | Int Temp (°F) | Int Humid (%) | Ext Temp (°F) | Solar V | RSSI | SNR | Time Stamp |
|---|---|---|---|---|---|---|---|---|---|---|
| 45926 | 15.6 | 4.03 | 8 | 102 | 53 | 95 | 4.50 | -72 | 8 | 07/10/2025 07:15 PM |
| 45925 | 15.6 | 4.04 | 7 | 104 | 53 | 96 | 4.50 | -72 | 8 | 07/10/2025 07:00 PM |
| 45924 | 15.7 | 4.05 | 46 | 106 | 52 | 98 | 4.60 | -74 | 7 | 07/10/2025 06:45 PM |
| 45923 | 15.7 | 3.98 | 0 | 108 | 52 | 99 | 5.10 | -73 | 8 | 07/10/2025 06:30 PM |
| 45922 | 15.7 | 3.99 | 6 | 110 | 51 | 101 | 5.10 | -74 | 8 | 07/10/2025 06:15 PM |
| 45921 | 15.7 | 4.13 | 6 | 111 | 50 | 102 | 5.10 | -73 | 8 | 07/10/2025 06:00 PM |
| 45920 | 15.7 | 4.03 | 6 | 111 | 49 | 104 | 5.10 | -71 | 8 | 07/10/2025 05:45 PM |
| 45919 | 15.7 | 3.97 | 0 | 111 | 49 | 103 | 5.10 | -73 | 8 | 07/10/2025 05:30 PM |
| 45918 | 15.7 | 4.00 | 6 | 111 | 48 | 102 | 5.10 | -72 | 8 | 07/10/2025 05:15 PM |
| 45917 | 15.8 | 3.97 | 6 | 112 | 48 | 105 | 5.10 | -74 | 8 | 07/10/2025 05:00 PM |
| 45916 | 15.8 | 3.97 | 0 | 112 | 47 | 104 | 5.10 | -72 | 7 | 07/10/2025 04:45 PM |
| 45915 | 15.7 | 3.97 | 6 | 112 | 46 | 102 | 5.20 | -71 | 8 | 07/10/2025 04:30 PM |
| 45914 | 15.7 | 4.12 | 6 | 112 | 45 | 104 | 5.10 | -72 | 7 | 07/10/2025 04:15 PM |
| 45913 | 15.7 | 4.05 | 6 | 111 | 45 | 105 | 5.10 | -73 | 8 | 07/10/2025 04:00 PM |
| 45912 | 15.7 | 3.97 | 6 | 110 | 45 | 103 | 5.20 | -74 | 6 | 07/10/2025 03:45 PM |
| 45911 | 15.7 | 4.00 | 6 | 110 | 44 | 103 | 5.10 | -72 | 8 | 07/10/2025 03:30 PM |
| 45910 | 15.7 | 4.13 | 6 | 108 | 44 | 100 | 5.10 | -71 | 8 | 07/10/2025 03:15 PM |
| 45909 | 15.7 | 3.97 | 6 | 108 | 43 | 99 | 5.10 | -71 | 8 | 07/10/2025 03:00 PM |
| 45908 | 15.7 | 4.07 | 6 | 106 | 44 | 97 | 5.20 | -71 | 7 | 07/10/2025 02:45 PM |
| 45907 | 15.6 | 3.97 | 6 | 106 | 43 | 95 | 5.10 | -71 | 8 | 07/10/2025 02:30 PM |
| 45906 | 15.7 | 3.97 | 6 | 107 | 42 | 95 | 5.20 | -71 | 8 | 07/10/2025 02:15 PM |
| 45905 | 15.8 | 3.97 | 6 | 105 | 42 | 99 | 5.10 | -72 | 7 | 07/10/2025 02:00 PM |
| 45904 | 15.7 | 3.97 | 6 | 103 | 42 | 98 | 5.20 | -71 | 8 | 07/10/2025 01:45 PM |
| 45903 | 15.7 | 3.97 | 0 | 101 | 43 | 95 | 5.10 | -71 | 8 | 07/10/2025 01:30 PM |
| 45902 | 15.7 | 3.97 | 0 | 99 | 43 | 92 | 5.20 | -71 | 7 | 07/10/2025 01:15 PM |